View from above orbital plane
|
View from above satellite
|
Ground track
|
The orbit data is extracted from the following two-line orbital elements,
1 36089U 09061B 13143.15318483 .00000218 00000-0 67108-4 0 513
2 36089 098.1533 185.1569 0081700 296.5081 129.9209 14.48901944186460
| Epoch (UTC): | 23 May 2013 03:40:35 |
| Eccentricity: | 0.0081700 |
| inclination: | 98.1533° |
| perigee height: | 671 km |
| apogee height: | 787 km |
| right ascension of ascending node: | 185.1569° |
| argument of perigee: | 296.5081° |
| revolutions per day: | 14.48901944 |
| mean anomaly at epoch: | 129.9209° |
| orbit number at epoch: | 18646 |
The dashed part of the orbit path shows where the satellite is in the earth's shadow,
|
|